Regional Weather Roundup
Issued by NWS

Home | Current Version | Previous Version | Text Only | Print | Product List | Glossary On
Versions: 1 2 3 4 5 6 7 8 9 10 11 12 13 14 15 16 17 18 19 20 21 22 23 24 25 26 27 28 29 30 31 32 33 34 35 36 37 38 39 40 41 42 43 44 45 46 47 48 49 50
000
ASUS43 KOAX 300910
RWRNE

WEATHER ROUNDUP FOR NEBRASKA
NATIONAL WEATHER SERVICE OMAHA NE
300 AM CST FRI JAN 30 2015

NOTES: SATELLITE DATA IS BEING USED TO AUGMENT CLOUD COVER ABOVE
       12000 FEET.
       "FAIR" INDICATES FEW OR NO CLOUDS BELOW 12,000 FEET WITH NO
       SIGNIFICANT WEATHER AND/OR OBSTRUCTIONS TO VISIBILITY.

  * THESE STATIONS DO NOT REPORT WEATHER SUCH AS RAIN...SNOW OR FOG.

NEZ001>004-019>022-054>056-301000-
NEBRASKA PANHANDLE

CITY           SKY/WX    TMP DP  RH WIND       PRES   REMARKS
SCOTTSBLUFF    MOCLDY    28  21  75 E8        30.29F WCI  20
ALLIANCE       MOCLDY    25  19  78 CALM      30.31F
CHADRON        MOCLDY    33  18  53 SW9       30.29F WCI  25
KIMBALL        CLOUDY    28  18  67 S10       30.27F WCI  18
SIDNEY         MOCLDY    28  19  69 S5        30.32F WCI  23
$$

NEZ057>060-069>072-079>082-301000-
SOUTHWEST NEBRASKA

CITY           SKY/WX    TMP DP  RH WIND       PRES   REMARKS
NORTH PLATTE   MOCLDY    17  13  84 CALM      30.42F
IMPERIAL       MOCLDY    30  21  69 S8        30.40F WCI  22
LEXINGTON      PTCLDY    18  15  88 CALM      30.45F
MCCOOK         PTCLDY    20  15  81 CALM      30.44F
OGALLALA       MOCLDY    24  19  82 CALM      30.39S
$$

NEZ005>010-023>029-035>040-094-301000-
NORTH CENTRAL NEBRASKA

CITY           SKY/WX    TMP DP  RH WIND       PRES   REMARKS
VALENTINE      CLEAR     20  16  84 NE3       30.38F
AINSWORTH      PTCLDY    24  19  84 S8        30.39F WCI  14
BROKEN BOW     PTCLDY    16  12  84 CALM      30.43F
O`NEILL        CLEAR     20  19  96 SE6       30.47S WCI  13
ORD            PTCLDY    23  18  81 SE7       30.46F WCI  15
THEDFORD       PTCLDY    27  18  69 S3        30.39S
$$

NEZ041-046>049-061>064-073>077-083>087-301000-
SOUTH CENTRAL NEBRASKA

CITY           SKY/WX    TMP DP  RH WIND       PRES   REMARKS
GRAND ISLAND   PTCLDY    20  17  88 SE3       30.51F
AURORA         PTCLDY    18  17  94 SE5       30.51F FOG     WCI  11
HASTINGS       CLEAR     25  20  81 SE8       30.48F WCI  16
HEBRON         CLEAR     15  11  87 CALM      30.54S
HOLDREGE       PTCLDY    19  13  79 CALM      30.46S
KEARNEY *      CLEAR     18  12  79 E3        30.47F
YORK           PTCLDY    19  19 100 CALM      30.52F
$$

NEZ011>018-030>034-042>045-301000-
NORTHEAST NEBRASKA

CITY           SKY/WX    TMP DP  RH WIND       PRES   REMARKS
NORFOLK        PTCLDY    17  13  84 CALM      30.51S
ALBION         PTCLDY    15  11  87 CALM      30.50F
BLAIR          CLEAR     22  19  85 CALM      30.52F
COLUMBUS *     PTCLDY    16   9  73 CALM      30.54S
FREMONT        CLEAR     19  17  92 W3        30.55S
WAYNE          PTCLDY    13  11  90 CALM      30.54S
$$

NEZ050>053-065>068-078-088>093-301000-
SOUTHEAST NEBRASKA

CITY           SKY/WX    TMP DP  RH WIND       PRES   REMARKS
LINCOLN        PTCLDY    16  13  88 CALM      30.56S
OMAHA EPPLEY   CLEAR     21  18  88 N3        30.55S
BEATRICE       CLEAR     15  13  90 CALM      30.55S
FALLS CITY     PTCLDY    18  15  88 NW5       30.55S WCI  11
NEBRASKA CITY  PTCLDY    22  19  85 CALM      30.55S
PLATTSMOUTH    CLEAR     21  17  86 CALM      30.54F
$$

NEZ044-045-051>053-067-301000-
OMAHA AREA

CITY           SKY/WX    TMP DP  RH WIND       PRES   REMARKS
OMAHA EPPLEY   CLEAR     21  18  88 N3        30.55S
BLAIR          CLEAR     22  19  85 CALM      30.52F
FREMONT        CLEAR     19  17  92 W3        30.55S
MILLARD        CLEAR     22  19  87 CALM      30.55S
OFFUTT AFB     CLEAR     18  16  89 CALM      30.55S
PLATTSMOUTH    CLEAR     21  17  86 CALM      30.54F
WAHOO          FAIR      16  13  89 NW3       30.54S
$$



USA.gov is the U.S. government's official web portal to all federal, state and local government web resources and services.